CZ-4 DEB, 27676

Orbit data source: Space-Track

CZ-4 DEB, 27676 is space debris in SSO originally from a launch on Thu, 14 Oct 1999 UTC launched from the Taiyaun Space Center, China (TSC). Debris objects in space refer to the collection of defunct objects orbiting the Earth. Examples of debris include non-operational satellites, rocket bodies, and fragments generated from explosions, collisions, or faulty payload assembly.

Loading next visibility...
Identifier
27676, 1999-057MQ
Orbit
SSO
Country
Flag of CNCN / PRC
Related business
Manufacturer
Unknown
Mission
Spacecraft
Bus & Motor
Unknown
Mass
Unknown
Launch date (UTC)
1999-10-14 (27 years ago)
Launch vehicle
Unknown
Launch site
Taiyaun Space Center, China (TSC)
Object type
Payload
Rocket body
Debris
Shape & HBR
Unknown shape, 0.1 m
Radar Cross Section
Small (<0.1 m²)

Expand to show TLE details & history
Last TLE update: 1 day ago

TLE from 1 day ago
0 CZ-4 DEB
1 27676U 99057MQ  26263.11222433  .00000307  00000-0  10389-3 0  9999
2 27676  98.6413 326.1188 0098419 328.9331  30.6061 14.41357841240358
Epoch: 2026-09-20T02:41Z
TLE epoch observation values (Epoch: 2026-09-20T02:41:36.182Z)
Latitude
0.00008°
Longitude
-73.29305°
Altitude
696.716 km
Speed
7.539 km/s
True Right ascension
21h 44m 28s
True Declination
0° 00' 00"
Sunlit
Object was in full shadow at epoch
Visualization orbit readout
Latitude
Unknown
Longitude
Unknown
Altitude
Unknown
Speed
Unknown
Apparent Right ascension
Unknown
Apparent Declination
Unknown
Sunlit
N/A
Visualization observer readout
Local Sidereal Time
04:30:32
Azimuth
Unknown
Elevation
Unknown
Doppler factor
Unknown
Orbital elements
Apogee altitude
821.308 km
Perigee altitude
680.976 km
Semi-major axis
7,129.279 km
Eccentricity
0.00984
Inclination
98.6413°
RAAN
326.1188°
Arg. of periapsis
328.9331°
True anomaly
31.18643°
Mean anomaly
30.6061°
Eccentric anomaly
30.89565°
Mean motion
3.60558 °/min
Orbital period
99.85 mins
BSTAR
0.00010389
Loading maneuver chart data...
Computing Atmospheric mass density...

Documentation

Showing up to 5 results
|